Find Starlink 32682

NORAD ID: 62196 Int'l Des: 2024-229 Owner: SPXS Country: US Constellation: starlink operational
LEOCIRCULAR

当前视图

正在加载3D地球...

About Starlink 32682

Starlink 32682 (NORAD 62196) is a starlink constellation satellite (v2 mini) launched Dec 4, 2024 by SPXS of US. It operates in LEO, CIRCULAR orbit with a mass of 730.00 kg.

关于 Starlink 32682

正在加载描述...

即将过境

Passes for default location (London). Set your location on the main map for personalized predictions.

高度历史

Loading altitude history...

两行轨道根数

1 62196U 24229E 26167.35320656 .00020136 00000-0 73867-3 0 9991
2 62196 42.9919 40.8486 0002697 266.6717 93.3826 15.27603462 86022
Epoch: Jun 16, 2026 • Age: 12 hours

当前状态

高度 493.8 km
速度 7.62 km/s
星下点 -41.57°S, 75.34°E
发射日期 Dec 4, 2024
运行时间 1.5 years
类型 internet

技术详情

分类 Payload
质量 730.00 kg
干质量 700.00 kg
总质量 730.00 kg
长度 0.30 m
直径 4.10 m
跨度 29.00 m
形状 Box + pan
制造商 SPXS
平台类型 Starlink V2M
阶段状态 In Orbit
所有者/国家 SPXS/US

Most Searched